Weather History for Falfurrias, TX

Change the Weather History Date:

Wednesday, January 8, 2014

  Actual Average (KNQI) Record (KNQI)
Temperature  
Mean Temperature 59 °F -  
Max Temperature 68 °F 66 °F 84 °F (2009)
Min Temperature 50 °F 46 °F 33 °F (1997)
Degree Days  
Heating Degree Days 6    
Growing Degree Days 9 (Base 50)    
Moisture  
Dew Point 53 °F    
Average Humidity 82    
Maximum Humidity 96    
Minimum Humidity 62    
Precipitation  
Precipitation 0.00 in - - ()
Sea Level Pressure  
Sea Level Pressure 30.17 in    
Wind  
Wind Speed 3 mph (SE)    
Max Wind Speed 18 mph    
Max Gust Speed 23 mph    
Visibility 8 miles    
Events      
Averages and records for this station are not official NWS values.
T = Trace of Precipitation, MM = Missing Value Source: NWS Daily Summary

Daily Weather History Graph

Daily Weather History Graph

Search for Another Location

Airport:

Trip Planner

Search our weather history database for the weather conditions in past years. The results will help you decide how hot, cold, wet, or windy it might be!

Date:

Astronomy

Jan. 08, 2014 Rise Set
Actual Time 7:23 AM CST 5:55 PM CST
Civil Twilight 6:58 AM CST 6:20 PM CST
Nautical Twilight 6:29 AM CST 6:49 PM CST
Astronomical Twilight 6:01 AM CST 7:17 PM CST
Moon 12:32 PM CST (1/8) 12:49 AM CST (1/8)
Length of Visible Light 11h 22m
Length of Day
10h 31m
First Quarter, 56% of the Moon is Illuminated
Jan 8
First Quarter
Jan 15
Full
Jan 23
Last Quarter
Jan 30
New
Feb 6
First Quarter

Hourly Weather History & Observations

Time (CST) Temp. Dew Point Humidity Pressure Visibility Wind Dir Wind Speed Gust Speed Precip Events Conditions
12:15 AM 51.8 °F 43.7 °F 74% 30.31 in 10.0 mi Calm Calm - N/A   Overcast
12:35 AM 51.8 °F 43.9 °F 74% 30.30 in 10.0 mi Calm Calm - N/A   Overcast
12:55 AM 52.0 °F 44.6 °F 76% 30.29 in 10.0 mi Calm Calm - N/A   Overcast
1:15 AM 52.2 °F 44.8 °F 76% 30.28 in 10.0 mi Calm Calm - N/A   Overcast
1:35 AM 52.0 °F 45.1 °F 77% 30.27 in 10.0 mi Calm Calm - N/A   Overcast
1:55 AM 52.3 °F 45.7 °F 78% 30.26 in 10.0 mi Calm Calm - N/A   Overcast
2:15 AM 52.2 °F 45.9 °F 79% 30.26 in 10.0 mi Calm Calm - N/A   Overcast
2:35 AM 52.0 °F 46.4 °F 81% 30.26 in 10.0 mi West 3.5 mph - N/A   Overcast
2:55 AM 51.8 °F 46.4 °F 82% 30.25 in 10.0 mi Calm Calm - N/A   Overcast
3:15 AM 51.8 °F 46.8 °F 83% 30.25 in 10.0 mi Calm Calm - N/A   Overcast
3:35 AM 52.0 °F 47.3 °F 84% 30.24 in 10.0 mi Calm Calm - N/A   Overcast
3:55 AM 51.8 °F 48.2 °F 88% 30.24 in 10.0 mi Calm Calm - N/A   Overcast
4:15 AM 51.8 °F 48.4 °F 88% 30.23 in 10.0 mi Calm Calm - N/A   Overcast
4:35 AM 51.8 °F 48.9 °F 90% 30.23 in 10.0 mi Calm Calm - N/A   Overcast
4:55 AM 51.8 °F 48.6 °F 89% 30.22 in 10.0 mi Calm Calm - N/A   Overcast
5:15 AM 51.8 °F 49.1 °F 90% 30.22 in 10.0 mi Calm Calm - N/A   Overcast
5:35 AM 51.4 °F 48.7 °F 90% 30.21 in 7.0 mi Calm Calm - N/A   Overcast
5:55 AM 51.1 °F 48.7 °F 92% 30.20 in 5.0 mi Calm Calm - N/A   Overcast
6:15 AM 50.9 °F 49.1 °F 94% 30.20 in 1.2 mi Calm Calm - N/A   Overcast
6:35 AM 50.9 °F 49.3 °F 94% 30.19 in 0.8 mi Calm Calm - N/A   Overcast
6:55 AM 50.9 °F 49.5 °F 95% 30.20 in 1.5 mi Calm Calm - N/A   Overcast
7:15 AM 50.9 °F 49.5 °F 95% 30.19 in 4.0 mi Calm Calm - N/A   Overcast
7:35 AM 50.9 °F 49.5 °F 95% 30.20 in 4.0 mi Calm Calm - N/A   Overcast
7:55 AM 50.9 °F 49.6 °F 95% 30.20 in 4.0 mi Calm Calm - N/A   Overcast
8:15 AM 50.9 °F 49.5 °F 95% 30.22 in 2.5 mi Calm Calm - N/A   Overcast
8:35 AM 50.9 °F 49.8 °F 96% 30.21 in 1.2 mi Calm Calm - N/A   Overcast
8:55 AM 51.1 °F 50.0 °F 96% 30.22 in 3.0 mi Calm Calm - N/A   Overcast
9:15 AM 51.8 °F 50.4 °F 95% 30.23 in 5.0 mi Calm Calm - N/A   Overcast
9:35 AM 52.2 °F 50.4 °F 94% 30.23 in 5.0 mi West 3.5 mph - N/A   Overcast
9:55 AM 52.9 °F 50.4 °F 91% 30.25 in 5.0 mi West 4.6 mph - N/A   Overcast
10:15 AM 53.1 °F 50.4 °F 91% 30.24 in 3.0 mi WSW 3.5 mph - N/A   Overcast
10:35 AM 54.0 °F 50.7 °F 89% 30.25 in 7.0 mi West 3.5 mph - N/A   Overcast
10:55 AM 54.7 °F 51.1 °F 88% 30.25 in 5.0 mi Calm Calm - N/A   Overcast
11:15 AM 55.6 °F 51.4 °F 86% 30.23 in 5.0 mi Calm Calm - N/A   Overcast
11:35 AM 57.6 °F 52.0 °F 82% 30.23 in 10.0 mi Calm Calm - N/A   Overcast
11:55 AM 58.1 °F 52.2 °F 81% 30.22 in 10.0 mi Calm Calm - N/A   Overcast
12:15 PM 59.9 °F 52.7 °F 77% 30.20 in 10.0 mi SE 5.8 mph - N/A   Overcast
12:35 PM 61.2 °F 53.2 °F 75% 30.18 in 10.0 mi SSE 6.9 mph - N/A   Overcast
12:55 PM 63.3 °F 53.6 °F 71% 30.16 in 10.0 mi SE 4.6 mph - N/A   Mostly Cloudy
1:15 PM 64.6 °F 53.6 °F 68% 30.14 in 10.0 mi SSE 6.9 mph - N/A   Mostly Cloudy
1:35 PM 65.8 °F 54.0 °F 65% 30.13 in 10.0 mi SE 5.8 mph - N/A   Mostly Cloudy
1:55 PM 68.2 °F 54.7 °F 62% 30.11 in 10.0 mi SSE 12.7 mph 17.3 mph N/A   Scattered Clouds
2:15 PM 67.1 °F 56.3 °F 68% 30.11 in 10.0 mi SSE 17.3 mph 23.0 mph N/A   Overcast
2:35 PM 66.7 °F 57.2 °F 71% 30.10 in 10.0 mi SSE 18.4 mph 23.0 mph N/A   Overcast
2:55 PM 67.3 °F 56.3 °F 68% 30.10 in 10.0 mi SE 9.2 mph - N/A   Overcast
3:15 PM 67.5 °F 56.7 °F 68% 30.09 in 10.0 mi SSE 13.8 mph 17.3 mph N/A   Overcast
3:35 PM 67.3 °F 57.2 °F 70% 30.09 in 10.0 mi SSE 15.0 mph - N/A   Overcast
3:55 PM 68.5 °F 57.0 °F 67% 30.08 in 10.0 mi SSE 17.3 mph 20.7 mph N/A   Overcast
4:15 PM 67.6 °F 57.2 °F 69% 30.08 in 10.0 mi SSE 13.8 mph - N/A   Overcast
4:35 PM 67.5 °F 57.2 °F 70% 30.07 in 10.0 mi SSE 12.7 mph - N/A   Overcast
4:55 PM 67.3 °F 57.7 °F 71% 30.07 in 10.0 mi SE 9.2 mph - N/A   Overcast
5:15 PM 67.1 °F 58.1 °F 73% 30.08 in 10.0 mi SE 9.2 mph - N/A   Overcast
5:35 PM 67.1 °F 58.3 °F 73% 30.07 in 10.0 mi SE 8.1 mph - N/A   Overcast
5:55 PM 66.9 °F 58.5 °F 74% 30.07 in 10.0 mi SE 8.1 mph - N/A   Overcast
6:15 PM 66.6 °F 59.0 °F 77% 30.07 in 10.0 mi SE 6.9 mph - N/A   Overcast
6:35 PM 66.4 °F 59.0 °F 77% 30.08 in 10.0 mi ESE 4.6 mph - N/A   Overcast
6:55 PM 66.4 °F 59.2 °F 78% 30.09 in 10.0 mi SE 4.6 mph - N/A   Overcast
7:15 PM 66.2 °F 59.2 °F 78% 30.09 in 10.0 mi ESE 4.6 mph - N/A   Mostly Cloudy
7:35 PM 65.5 °F 59.7 °F 82% 30.09 in 10.0 mi ESE 5.8 mph - N/A   Mostly Cloudy
7:55 PM 64.4 °F 59.9 °F 85% 30.11 in 10.0 mi ESE 4.6 mph - N/A   Overcast
8:15 PM 64.0 °F 59.9 °F 86% 30.12 in 10.0 mi East 4.6 mph - N/A   Overcast
8:35 PM 63.7 °F 59.9 °F 87% 30.13 in 10.0 mi Calm Calm - N/A   Overcast
8:55 PM 63.9 °F 59.9 °F 87% 30.13 in 10.0 mi ESE 4.6 mph - N/A   Overcast
9:15 PM 64.4 °F 59.7 °F 85% 30.12 in 10.0 mi SE 6.9 mph - N/A   Overcast
9:35 PM 64.0 °F 59.5 °F 85% 30.13 in 10.0 mi SE 4.6 mph - N/A   Overcast
9:55 PM 64.2 °F 59.5 °F 85% 30.13 in 10.0 mi SE 4.6 mph - N/A   Overcast
10:15 PM 64.4 °F 59.5 °F 84% 30.13 in 10.0 mi SE 5.8 mph - N/A   Overcast
10:35 PM 64.4 °F 59.4 °F 84% 30.12 in 10.0 mi SE 6.9 mph - N/A   Overcast
10:55 PM 64.4 °F 59.0 °F 83% 30.12 in 10.0 mi SE 6.9 mph - N/A   Overcast
11:15 PM 64.4 °F 59.0 °F 83% 30.13 in 10.0 mi SSE 5.8 mph - N/A   Overcast
11:35 PM 63.9 °F 59.0 °F 84% 30.12 in 10.0 mi SE 6.9 mph - N/A   Overcast
11:55 PM 63.9 °F 59.0 °F 84% 30.13 in 10.0 mi SE 3.5 mph - N/A   Overcast